Weather History for KCKB - November, 2012

Change the Weather History Date:

Saturday, November 10, 2012

  Actual Average Record
Temperature  
Mean Temperature 50 °F -  
Max Temperature 69 °F 56 °F 77 °F (1977)
Min Temperature 32 °F 34 °F 20 °F (1929)
Degree Days  
Heating Degree Days 14    
Moisture  
Dew Point 33 °F    
Average Humidity 58    
Maximum Humidity 89    
Minimum Humidity 29    
Precipitation  
Precipitation 0.00 in - - ()
Sea Level Pressure  
Sea Level Pressure 30.25 in    
Wind  
Wind Speed 2 mph (SSW)    
Max Wind Speed 10 mph    
Max Gust Speed -    
Visibility 10 miles    
Events Rain    
Averages and records for this station are not official NWS values.
T = Trace of Precipitation, MM = Missing Value Source: NWS Daily Summary

Daily Weather History Graph

Daily Weather History Graph

Search for Another Location

Airport or City:

Trip Planner

Search our weather history database for the weather conditions in past years. The results will help you decide how hot, cold, wet, or windy it might be!

Date:

Astronomy

Nov. 10, 2012 Rise Set
Actual Time 6:59 AM EST 5:09 PM EST
Civil Twilight 6:30 AM EST 5:38 PM EST
Nautical Twilight 5:58 AM EST 6:10 PM EST
Astronomical Twilight 5:27 AM EST 6:41 PM EST
Moon 3:03 AM EST (11/10) 2:54 PM EST (11/10)
Length of Visible Light 11h 07m
Length of Day
10h 10m
Waning Crescent, 14% of the Moon is Illuminated
Nov 10
Waning Crescent
Nov 13
New
Nov 20
First Quarter
Nov 28
Full
Dec 6
Last Quarter

Hourly Weather History & Observations

Time (EST) Temp. Dew Point Humidity Pressure Visibility Wind Dir Wind Speed Gust Speed Precip Events Conditions
12:53 AM 35.1 °F 30.0 °F 82% 30.22 in 10.0 mi Calm Calm - N/A   Clear
1:53 AM 32.0 °F 28.0 °F 85% 30.23 in 9.0 mi Calm Calm - N/A   Clear
2:53 AM 33.1 °F 30.0 °F 89% 30.24 in 9.0 mi Calm Calm - N/A   Overcast
3:53 AM 34.0 °F 30.0 °F 85% 30.25 in 9.0 mi Calm Calm - N/A   Overcast
4:53 AM 35.1 °F 32.0 °F 89% 30.26 in 9.0 mi Calm Calm - N/A   Mostly Cloudy
5:53 AM 37.0 °F 32.0 °F 82% 30.27 in 9.0 mi Calm Calm - 0.00 in Rain Light Rain
6:53 AM 36.0 °F 33.1 °F 89% 30.29 in 9.0 mi Calm Calm - 0.00 in   Mostly Cloudy
7:53 AM 36.0 °F 33.1 °F 89% 30.30 in 8.0 mi Calm Calm - N/A   Partly Cloudy
8:53 AM 44.1 °F 36.0 °F 73% 30.30 in 10.0 mi Calm Calm - N/A   Clear
9:53 AM 53.1 °F 37.9 °F 57% 30.30 in 10.0 mi Calm Calm - N/A   Mostly Cloudy
10:53 AM 57.9 °F 34.0 °F 41% 30.29 in 10.0 mi South 5.8 mph - N/A   Partly Cloudy
11:53 AM 63.0 °F 35.1 °F 35% 30.26 in 10.0 mi SW 8.1 mph - N/A   Clear
12:53 PM 66.9 °F 35.1 °F 31% 30.22 in 10.0 mi SSW 10.4 mph - N/A   Clear
1:53 PM 68.0 °F 35.1 °F 30% 30.22 in 10.0 mi West 8.1 mph - N/A   Clear
2:53 PM 69.1 °F 36.0 °F 30% 30.20 in 10.0 mi SSW 8.1 mph - N/A   Clear
3:53 PM 66.9 °F 35.1 °F 31% 30.20 in 10.0 mi SSW 8.1 mph - N/A   Clear
4:53 PM 64.0 °F 33.1 °F 31% 30.20 in 10.0 mi South 8.1 mph - N/A   Clear
5:53 PM 64.0 °F 30.9 °F 29% 30.21 in 10.0 mi South 4.6 mph - N/A   Clear
6:53 PM 61.0 °F 30.9 °F 32% 30.23 in 10.0 mi SSE 3.5 mph - N/A   Clear
7:53 PM 57.9 °F 32.0 °F 37% 30.25 in 10.0 mi Calm Calm - N/A   Clear
8:53 PM 50.0 °F 34.0 °F 54% 30.27 in 10.0 mi Calm Calm - N/A   Clear
9:53 PM 48.0 °F 34.0 °F 58% 30.27 in 10.0 mi Calm Calm - N/A   Clear
11:53 PM 45.0 °F 34.0 °F 65% 30.27 in 10.0 mi Calm Calm - N/A   Clear